Location: ???????????
(55.5758°N, 38.4970°E)
Time: 17:17:01
(UTC+00:00)

Cosmos 2219 Rocket - Pass Details

Date: 15 November 2025
Orbit: 825 x 846 km, 71.0° (Epoch: 14 December)

Event Time Altitude Azimuth Distance (km) Brightness Sun altitude
Exits shadow 01:02:59 34° 17° (NNE) 1,363 3.4 -33.0°
Drops below altitude 10° 01:06:15 10° 31° (NNE) 2,482 5.1 -32.6°
Sets 01:08:45 0° 35° (NE) 3,422 6.0 -32.2°
